TimeMST,TemperatureF,Dew PointF,Humidity,Sea Level PressureIn,VisibilityMPH,Wind Direction,Wind SpeedMPH,Gust SpeedMPH,PrecipitationIn,Events,Conditions,WindDirDegrees,DateUTC
12:56 AM,25.0,14.0,63,30.37,10.0,West,3.5,-,N/A,,Clear,270,2012-11-13 07:56:00
1:56 AM,25.0,14.0,63,30.36,10.0,Calm,Calm,-,N/A,,Clear,0,2012-11-13 08:56:00
2:56 AM,21.9,14.0,72,30.37,10.0,Calm,Calm,-,N/A,,Clear,0,2012-11-13 09:56:00
3:56 AM,23.0,14.0,68,30.37,10.0,Calm,Calm,-,N/A,,Clear,0,2012-11-13 10:56:00
4:56 AM,21.0,14.0,74,30.39,10.0,Calm,Calm,-,N/A,,Clear,0,2012-11-13 11:56:00
5:56 AM,18.0,12.0,78,30.43,10.0,Calm,Calm,-,N/A,,Clear,0,2012-11-13 12:56:00
6:56 AM,18.0,12.0,78,30.47,10.0,Calm,Calm,-,N/A,,Clear,0,2012-11-13 13:56:00
7:56 AM,23.0,16.0,74,30.47,10.0,Calm,Calm,-,N/A,,Clear,0,2012-11-13 14:56:00
8:56 AM,28.9,16.0,58,30.45,10.0,Calm,Calm,-,N/A,,Clear,0,2012-11-13 15:56:00
9:56 AM,36.0,12.0,37,30.44,10.0,Calm,Calm,-,N/A,,Clear,0,2012-11-13 16:56:00
10:56 AM,39.9,10.0,29,30.42,10.0,Calm,Calm,-,N/A,,Clear,0,2012-11-13 17:56:00
11:56 AM,44.1,10.9,26,30.37,10.0,Calm,Calm,-,N/A,,Clear,0,2012-11-13 18:56:00
12:56 PM,46.9,10.9,23,30.35,10.0,Calm,Calm,-,N/A,,Clear,0,2012-11-13 19:56:00
1:56 PM,50.0,10.0,20,30.31,10.0,Calm,Calm,-,N/A,,Clear,0,2012-11-13 20:56:00
2:56 PM,50.0,10.0,20,30.31,10.0,Calm,Calm,-,N/A,,Clear,0,2012-11-13 21:56:00
3:56 PM,52.0,10.0,19,30.28,10.0,North,3.5,-,N/A,,Clear,360,2012-11-13 22:56:00
4:56 PM,50.0,10.0,20,30.30,10.0,Calm,Calm,-,N/A,,Clear,0,2012-11-13 23:56:00
5:56 PM,42.1,12.9,31,30.35,10.0,NW,3.5,-,N/A,,Clear,310,2012-11-14 00:56:00
6:56 PM,35.1,14.0,42,30.38,10.0,Calm,Calm,-,N/A,,Clear,0,2012-11-14 01:56:00
7:56 PM,30.0,15.1,54,30.39,10.0,SW,3.5,-,N/A,,Clear,230,2012-11-14 02:56:00
8:56 PM,28.0,14.0,56,30.39,10.0,SW,5.8,-,N/A,,Clear,220,2012-11-14 03:56:00
9:56 PM,28.0,15.1,58,30.38,10.0,Calm,Calm,-,N/A,,Clear,0,2012-11-14 04:56:00
10:56 PM,27.0,16.0,63,30.38,10.0,South,4.6,-,N/A,,Clear,190,2012-11-14 05:56:00
11:56 PM,26.1,16.0,66,30.37,10.0,Calm,Calm,-,N/A,,Clear,0,2012-11-14 06:56:00